GEFSGL_500_meanwind_276.txt.gz
Wind_Speed
6 7 8 9 9 9 10 11 12 12 13 13 13 13 13 13 13 14 14 14 14 14 14 15 15 15 15 15 15 16 16 16 15 15 16 16 17 18 18 18 18 19 20
8 9 9 9 10 10 11 12 13 14 14 14 14 14 14 14 14 15 15 16 16 16 16 16 16 17 17 17 17 17 17 17 17 17 17 18 18 18 18 19 20 21 22
10 10 11 11 11 12 12 13 13 14 15 14 14 14 15 15 15 16 16 17 17 17 17 17 17 18 18 18 17 18 18 18 18 18 18 18 19 19 19 20 21 22 23
10 11 12 13 13 13 14 15 15 15 15 15 16 16 16 17 17 17 17 18 18 18 18 19 18 18 18 18 18 19 19 19 19 19 19 19 20 19 20 21 22 22 23
12 12 13 14 14 15 15 16 16 17 17 17 17 18 18 18 19 19 19 19 19 19 20 20 19 19 19 19 19 20 20 19 20 20 20 20 20 20 21 21 22 23 23
13 13 14 15 16 16 16 17 18 18 18 18 18 19 19 20 20 20 21 20 20 20 20 20 20 19 19 20 20 21 21 21 21 21 21 21 21 22 22 23 23 22 22
15 15 16 16 17 18 18 18 18 19 19 19 20 20 21 21 21 21 22 22 21 21 21 20 20 20 20 21 22 22 22 22 22 22 22 22 22 23 23 24 24 24 24
16 17 17 18 18 19 19 19 20 20 20 20 20 21 22 22 21 21 22 22 21 21 21 21 21 21 22 22 22 23 23 23 23 23 23 23 23 23 23 24 24 23 23
18 19 19 20 20 20 19 19 20 20 20 20 21 22 22 22 22 22 22 22 22 22 22 22 22 23 23 23 23 24 24 24 25 25 24 24 24 24 24 24 24 24 23
20 20 21 21 20 20 20 20 20 21 21 21 22 23 23 23 22 23 23 23 23 23 23 23 23 23 23 24 24 25 25 25 25 24 24 25 25 24 24 25 24 24 24
22 22 22 22 21 22 22 22 22 22 22 23 24 24 24 23 23 24 24 24 24 24 24 24 24 24 24 24 25 25 25 25 25 25 25 25 25 25 24 24 24 24 24
24 24 24 24 24 24 24 24 24 24 24 25 25 25 25 25 25 25 25 26 26 26 25 25 26 26 26 26 26 26 26 25 25 26 26 26 26 25 25 24 24 24 25
25 26 26 27 27 27 27 26 26 26 26 26 26 26 26 26 26 26 27 28 27 27 27 28 28 28 28 27 27 27 27 27 26 26 27 27 26 26 26 25 25 25 25
27 28 29 29 28 28 28 28 28 28 27 27 27 27 27 27 27 28 28 29 29 28 28 29 29 29 29 29 28 28 29 28 28 27 27 27 26 26 27 27 26 26 26
29 30 30 30 29 29 29 29 29 29 29 28 28 28 28 28 28 29 29 29 29 29 29 29 29 28 29 29 29 29 29 28 28 28 28 28 28 28 28 27 27 27 27
31 31 31 31 30 30 30 30 30 30 30 29 29 29 29 30 30 30 30 31 29 29 29 29 28 28 29 29 29 29 28 28 28 27 27 28 28 28 28 28 27 27 26
32 32 31 31 30 30 30 30 30 30 30 30 29 29 29 30 30 30 30 30 29 29 29 29 29 29 29 29 29 28 28 28 28 28 28 28 28 28 28 27 27 27 26
33 32 32 31 31 31 31 31 31 31 30 30 30 29 29 30 30 29 29 29 29 29 29 29 29 29 29 29 29 28 28 28 28 28 29 29 28 28 27 27 27 27 27
31 31 31 32 32 31 31 31 30 30 31 31 30 29 29 30 29 29 29 29 29 29 28 29 29 29 29 29 29 28 28 29 28 28 29 29 29 28 27 27 27 26 27
30 31 31 30 30 30 30 29 30 30 30 30 30 29 29 30 30 29 29 29 29 28 28 29 29 29 29 28 29 29 29 29 29 29 28 28 28 28 27 27 27 27 27
30 30 29 28 28 29 29 30 30 30 30 30 29 29 29 29 29 30 30 30 30 30 29 29 29 29 28 29 29 29 29 28 28 28 28 28 28 28 28 28 28 28 28
28 28 29 29 29 29 29 29 30 30 30 29 29 29 29 29 30 30 30 30 31 30 30 29 28 28 29 29 29 29 29 29 28 28 29 29 29 28 28 29 29 29 29
29 29 29 28 28 29 29 29 29 29 29 29 29 30 30 30 30 30 30 31 31 30 30 29 29 29 29 29 30 30 30 30 29 29 29 29 29 29 29 29 29 29 29
29 29 29 29 29 29 29 29 29 29 30 30 30 31 31 32 32 32 31 31 31 30 30 30 30 29 29 29 30 30 30 30 30 30 30 29 29 29 29 29 29 29 29
29 29 29 30 30 30 30 30 30 31 31 31 31 32 33 33 33 32 32 32 31 31 31 31 30 29 29 29 29 29 29 30 30 30 30 30 29 29 29 29 30 30 30
28 28 29 30 30 30 30 31 31 31 32 32 32 32 32 33 33 32 32 31 31 30 30 30 30 29 29 30 30 29 29 29 30 30 30 30 30 30 30 30 30 30 30

GEFSGL_500_meanwind_282.txt.gz
Wind_Speed
8 8 8 8 8 8 7 8 8 9 10 10 10 11 11 11 11 11 12 12 13 13 13 13 13 14 14 15 15 15 15 16 16 16 17 17 17 18 17 17 18 18 18
10 10 10 10 10 9 9 9 9 10 11 11 12 12 12 12 13 12 13 13 13 14 14 14 15 15 15 15 15 16 16 17 17 17 17 18 18 18 18 18 18 18 19
12 11 11 12 11 11 11 11 11 11 12 12 13 14 14 14 14 14 14 14 15 15 16 16 16 16 16 16 16 17 17 17 18 18 19 19 19 19 19 19 19 19 19
14 13 13 13 13 13 13 13 13 15 15 14 14 14 15 15 16 16 15 15 16 17 17 17 17 17 17 18 18 18 18 18 19 19 19 19 19 19 20 19 20 20 21
15 15 14 14 14 14 14 15 15 16 16 15 15 15 16 16 16 17 17 17 18 18 18 18 19 19 19 19 19 18 18 19 19 20 20 20 20 20 21 21 22 22 22
16 16 16 15 16 16 17 17 18 18 18 18 17 16 17 17 17 18 18 18 19 19 19 19 19 19 19 20 20 19 19 20 21 21 21 21 21 22 22 22 22 23 23
17 18 18 18 18 19 19 19 20 20 19 19 19 19 18 18 19 19 20 20 20 20 20 20 21 21 21 21 21 21 21 22 22 22 22 23 23 23 23 23 24 24 24
19 19 19 19 20 20 20 21 21 21 21 20 19 19 19 20 20 20 21 21 21 21 21 22 22 22 22 22 23 23 23 23 23 23 23 23 23 24 24 24 24 25 24
21 20 20 21 21 22 23 22 22 21 21 20 19 20 21 21 21 21 22 22 22 23 23 24 24 24 23 24 24 24 24 24 24 24 24 24 24 24 24 24 24 25 24
22 22 22 22 22 23 24 23 23 22 22 22 21 21 21 22 22 22 24 24 24 25 25 25 24 24 24 24 25 25 25 25 25 25 25 25 24 24 24 24 25 25 25
23 23 23 24 25 25 24 23 24 24 24 24 23 23 23 23 23 24 25 26 26 26 27 26 26 26 26 26 26 26 26 26 26 26 25 25 25 25 25 25 26 26 25
25 25 25 24 25 25 24 25 25 25 26 25 25 25 24 24 25 26 26 27 27 27 27 27 27 27 27 27 27 26 26 26 26 26 26 26 26 25 25 25 26 27 26
27 27 26 26 26 26 26 26 26 27 27 26 26 26 26 26 26 27 27 27 27 28 28 28 28 28 28 27 27 27 27 27 27 27 27 26 27 27 28 27 27 27 27
29 29 28 28 28 28 27 27 28 28 28 27 27 27 26 26 27 27 27 27 28 28 29 28 28 28 28 28 28 28 28 28 27 27 28 28 28 28 28 28 28 28 27
30 30 30 30 30 29 29 29 29 29 28 28 27 28 27 27 27 27 28 28 28 29 28 28 28 28 28 28 28 28 28 28 28 27 27 28 28 28 28 28 28 28 28
31 31 31 32 32 31 31 30 30 30 29 29 29 29 28 28 28 28 28 28 27 27 27 28 28 28 28 28 28 28 27 27 27 27 27 27 28 28 28 28 28 28 28
31 32 32 33 32 32 31 31 31 30 30 30 31 31 30 30 30 29 29 28 27 27 27 27 27 28 28 28 28 28 28 28 28 28 28 28 28 28 27 27 28 28 27
33 33 33 33 33 34 33 33 32 32 31 31 32 32 32 31 30 30 29 28 28 28 27 27 26 26 27 27 27 27 28 28 28 29 29 28 28 28 28 28 28 27 27
33 33 34 34 34 34 34 34 34 33 32 32 32 32 32 32 31 30 29 28 28 28 28 27 27 27 27 27 27 27 28 28 29 29 28 28 28 28 28 27 28 28 28
34 34 34 34 34 34 35 35 35 34 33 32 32 32 33 32 31 30 29 28 28 28 28 27 27 27 27 27 27 28 28 28 27 28 28 28 28 28 28 28 28 28 28
33 34 34 34 34 34 34 34 33 32 32 31 32 32 32 32 32 31 30 29 28 28 28 28 27 27 28 29 29 28 28 28 28 28 29 28 28 28 28 28 28 28 28
32 33 33 34 34 33 32 32 31 32 32 32 31 31 31 31 31 30 30 29 29 29 29 28 28 28 29 29 29 29 29 29 29 29 29 29 29 29 28 28 28 28 28
33 33 33 33 33 33 32 32 32 32 32 32 32 31 31 31 30 30 30 30 29 29 28 28 29 29 29 29 30 30 30 30 29 29 29 29 29 29 29 29 28 28 28
32 32 32 32 32 32 32 32 32 32 32 32 31 31 31 30 30 30 30 30 30 30 30 30 31 31 30 30 30 30 30 30 30 30 30 30 30 30 30 30 29 29 29
30 30 31 31 32 32 31 32 32 32 32 32 32 32 31 31 31 30 30 31 31 31 31 31 31 31 31 31 31 31 30 30 31 31 30 30 31 31 30 29 29 29 29
30 30 31 31 31 30 31 31 31 31 32 32 31 31 31 31 31 31 30 30 30 30 30 30 30 30 31 30 30 30 30 30 30 30 30 30 30 30 29 29 29 29 28

GEFSGL_500_meanwind_288.txt.gz
Wind_Speed
11 11 11 11 11 11 12 12 11 11 11 12 12 13 13 13 13 13 13 14 14 14 14 14 14 13 14 14 15 15 15 16 15 16 16 16 16 17 16 16 16 17 17
12 12 12 12 12 12 12 12 12 12 13 13 13 14 14 14 14 14 14 14 14 14 15 15 15 15 15 16 16 16 17 18 18 17 17 18 18 18 17 17 18 17 17
12 12 12 13 13 13 13 13 13 14 14 14 15 15 15 15 16 16 16 16 16 16 17 17 17 16 16 17 18 18 18 18 19 18 19 19 19 19 19 19 19 18 18
12 12 13 13 14 14 14 14 15 15 15 16 16 16 16 17 17 17 17 18 18 18 18 18 18 17 17 18 18 19 19 19 20 20 20 20 20 20 20 20 20 20 20
13 13 14 14 15 15 16 16 16 16 16 16 17 17 18 18 18 18 18 19 18 18 18 19 19 19 19 19 19 20 20 21 21 21 22 22 21 21 21 21 21 22 22
15 15 15 15 16 16 17 17 17 17 17 17 18 18 19 19 20 19 20 20 19 19 19 19 20 21 20 20 20 21 21 22 22 22 23 22 22 22 22 22 22 22 22
16 17 17 18 18 18 18 18 19 19 19 20 20 20 21 22 22 22 22 21 22 20 20 20 20 21 22 22 23 23 24 24 24 24 23 23 23 23 23 23 23 23 23
18 19 19 19 19 20 19 20 21 22 22 22 22 22 22 22 22 23 22 22 22 22 22 21 22 23 24 25 25 25 26 26 27 26 26 26 25 25 25 24 24 24 24
20 20 20 20 21 21 22 22 22 23 23 23 23 23 23 23 23 23 23 24 24 24 24 24 25 26 27 27 27 27 27 27 28 27 27 26 26 25 25 24 24 24 24
22 22 22 22 23 23 24 25 25 25 25 24 24 24 24 24 24 24 24 25 26 26 26 26 26 27 27 28 28 28 28 29 29 28 28 27 26 25 25 25 25 25 25
24 24 24 25 25 25 26 26 27 26 26 25 25 25 25 25 26 25 25 26 26 26 27 27 27 28 28 29 29 30 30 30 29 29 28 27 26 26 25 26 26 26 26
26 25 26 27 28 28 28 28 27 27 27 26 26 26 25 26 26 26 26 26 27 27 27 27 27 28 29 29 30 30 30 30 30 29 28 27 27 27 26 26 26 26 26
27 27 27 28 29 29 29 28 28 28 28 27 27 27 26 27 27 27 27 27 27 27 28 28 28 29 29 29 30 30 30 30 29 29 28 27 27 27 27 27 27 26 27
27 28 28 29 29 29 30 29 29 29 29 28 28 28 28 28 28 28 28 28 28 28 28 29 29 29 30 29 29 30 30 29 28 28 27 27 27 27 27 27 27 26 26
28 29 28 29 30 30 30 31 31 30 29 30 30 29 29 29 30 30 29 29 29 29 30 30 30 29 30 30 30 30 29 28 28 28 27 27 27 27 27 26 26 26 26
29 29 30 30 31 30 31 31 31 31 31 31 31 31 31 31 31 31 31 31 30 30 30 30 30 29 30 30 29 29 28 28 28 28 27 27 27 27 27 27 27 26 25
31 30 30 30 30 31 32 32 32 33 33 34 34 33 33 33 32 32 32 32 32 32 31 31 30 30 30 30 29 29 29 29 28 28 28 28 28 28 28 27 27 27 26
31 31 31 31 32 32 33 33 34 35 35 35 35 35 35 34 34 33 33 32 32 32 32 31 32 31 31 30 30 30 30 29 29 28 28 28 28 28 28 27 27 27 27
31 32 32 32 32 33 33 34 35 36 36 35 34 34 34 35 34 34 33 33 33 33 32 32 31 31 31 31 31 30 29 29 28 28 27 27 27 28 28 28 28 28 27
33 33 33 33 34 34 35 36 36 36 35 34 33 34 34 34 34 33 33 34 34 33 33 32 31 30 31 30 30 29 29 29 28 28 27 28 28 28 28 28 29 29 29
33 33 33 34 34 35 35 36 36 36 35 34 34 33 33 33 33 33 33 34 34 33 32 31 31 30 30 30 29 30 29 29 29 29 28 29 29 28 29 29 30 30 30
32 33 34 34 34 34 35 36 36 36 35 34 34 34 33 33 33 33 33 33 33 32 31 31 31 31 31 29 29 30 30 30 29 29 29 29 29 29 30 30 30 29 29
33 33 32 32 32 33 34 35 36 36 36 36 35 34 34 34 35 35 34 33 33 32 32 32 31 31 31 31 30 30 30 29 29 29 29 30 30 30 30 29 30 30 30
33 33 33 33 34 34 35 35 36 36 36 36 35 35 35 36 35 35 34 33 33 32 33 33 32 32 32 32 32 32 31 30 30 31 30 30 30 29 29 29 29 29 29
33 33 34 34 34 35 35 35 36 36 35 35 35 35 35 34 34 34 34 34 33 32 32 32 32 32 32 32 32 31 31 30 30 30 30 30 30 30 30 29 29 29 29
33 34 35 35 35 34 34 34 34 33 33 34 34 34 34 34 33 33 32 32 32 32 32 32 32 32 31 31 31 31 30 30 30 31 30 30 30 29 29 29 29 29 29

GEFSGL_500_meanwind_294.txt.gz
Wind_Speed
8 8 8 8 8 8 8 8 8 8 9 9 9 9 10 10 11 11 11 11 10 11 11 12 12 12 13 14 14 14 15 15 16 15 15 16 16 16 17 17 18 18 18
9 9 9 8 9 9 9 9 9 9 9 9 10 10 11 11 11 11 11 11 11 12 12 12 13 13 14 15 15 15 16 16 16 17 17 17 17 17 17 18 18 18 19
9 9 9 9 9 9 10 10 10 10 10 10 11 12 12 13 13 12 13 13 13 13 13 14 14 15 15 16 16 16 17 17 18 18 19 18 19 19 19 19 19 19 19
10 10 10 10 10 10 10 10 11 11 11 12 13 14 14 14 14 15 15 15 16 16 16 16 16 16 17 17 17 18 18 18 19 19 20 20 20 19 20 20 19 20 20
11 11 12 12 13 12 12 12 13 13 14 14 15 15 15 15 16 16 16 17 17 17 18 18 18 18 18 19 19 19 19 19 20 21 22 22 21 20 21 21 20 20 21
13 13 13 14 15 15 14 15 15 16 16 16 17 17 17 17 17 17 18 18 18 18 19 18 18 19 19 19 19 20 20 21 22 22 23 23 22 22 22 21 21 21 22
15 15 16 15 16 16 16 16 17 17 17 17 18 18 18 18 18 19 19 19 19 19 20 20 20 20 20 20 21 21 21 22 23 23 23 23 23 23 23 23 24 24 24
17 17 18 18 18 16 17 18 18 18 19 19 19 19 19 20 20 20 20 21 21 21 21 22 22 21 21 21 21 22 22 23 24 23 23 23 23 24 25 25 25 25 25
19 20 20 19 19 19 19 20 20 21 21 20 20 20 21 21 21 21 21 21 22 22 22 23 23 22 22 23 23 23 23 24 24 23 24 24 24 24 25 25 25 25 25
22 22 21 21 21 21 21 21 22 21 21 21 21 21 22 22 22 22 23 23 23 23 23 24 24 24 24 24 24 25 25 24 24 25 25 25 25 25 25 26 26 26 25
23 23 22 22 22 22 22 22 22 23 23 23 23 23 24 23 23 24 24 24 24 24 24 25 25 26 26 26 26 26 25 25 25 25 25 26 25 25 25 26 26 26 26
23 24 24 24 24 24 24 24 24 24 24 24 24 25 25 25 25 24 24 24 25 25 25 26 26 26 27 27 27 27 26 26 26 26 26 26 26 26 26 25 25 25 25
25 26 26 26 25 25 25 25 25 25 25 25 25 25 26 27 27 26 25 25 26 26 27 27 27 27 28 28 28 28 28 28 27 27 27 27 27 27 26 25 25 25 24
26 27 27 27 26 26 26 26 26 26 26 26 26 26 26 27 27 26 26 26 27 27 28 28 27 27 28 28 28 28 28 28 28 28 28 27 28 27 26 26 25 25 25
27 28 28 28 27 27 27 27 27 27 26 26 26 26 27 27 27 27 27 27 28 28 28 29 29 28 28 29 28 29 29 28 28 28 28 28 28 28 27 27 26 26 25
28 28 28 29 29 28 28 29 29 29 29 28 29 29 29 29 29 29 29 29 29 29 29 29 30 30 30 30 30 30 30 29 29 29 29 29 29 29 28 28 28 27 26
29 29 29 30 30 30 31 31 31 31 31 30 30 30 31 31 31 31 31 31 30 30 30 30 31 31 31 31 31 31 31 31 30 30 30 29 29 29 28 28 28 27 26
30 30 31 30 31 31 32 32 32 31 32 32 32 33 33 33 33 32 32 31 32 33 32 32 33 33 32 32 32 31 31 31 31 30 30 29 28 28 28 27 27 27 26
30 30 31 31 32 32 33 33 33 33 33 33 33 34 34 34 34 34 34 33 33 34 34 34 34 33 32 32 31 31 31 31 31 30 30 29 28 28 28 27 27 27 27
31 31 32 32 32 32 33 34 34 34 35 35 35 35 35 35 35 34 34 34 34 34 34 34 33 33 33 32 31 30 30 31 30 30 29 28 28 28 29 29 28 27 27
32 32 33 33 32 33 33 33 33 34 35 35 35 36 36 36 35 34 34 33 33 33 33 33 33 33 33 32 31 30 30 31 30 29 29 28 28 28 28 28 28 28 28
32 33 33 33 33 34 34 34 33 33 33 34 33 34 33 34 34 34 34 33 33 34 33 33 33 33 33 33 31 30 29 29 29 29 29 28 28 27 28 28 28 28 27
33 33 32 33 33 34 34 34 33 33 33 32 31 32 32 33 34 33 32 31 32 32 30 30 31 33 33 32 32 31 29 29 29 29 28 27 27 28 28 28 27 27 27
32 32 32 32 33 32 33 33 32 32 32 31 31 32 32 32 32 31 31 31 31 31 31 32 32 33 33 32 31 31 30 30 29 29 28 27 28 28 28 28 28 27 27
31 31 32 32 33 33 32 32 31 32 32 33 33 32 32 32 32 32 32 32 32 32 32 33 33 33 33 31 31 31 31 30 30 29 28 27 27 27 27 27 27 26 26
30 31 31 31 32 32 32 32 32 32 32 32 32 32 32 32 32 32 32 33 33 33 33 33 33 32 31 31 30 30 30 30 29 29 29 29 28 28 27 27 27 27 27